Lid_Strength_Index
9 11 13 12 11 11 11 12 14 12 9 9 10 10 8 8 8 7 8 7 6 6 4 3 3 2 2 2 2 2 2 1 1 1 2 1 3 2 3 2 2 2 2 1
11 13 9 8 9 10 11 12 13 11 9 9 10 11 9 7 8 8 7 7 7 6 5 4 3 3 2 2 2 2 1 1 1 2 2 2 2 3 3 3 3 2 2 2
11 11 7 8 9 10 10 12 12 12 10 10 11 12 10 8 7 7 5 6 6 6 6 5 4 3 3 3 2 2 1 1 1 2 1 2 3 5 5 5 4 3 2 3
9 8 8 9 10 9 12 9 9 10 12 15 11 16 11 9 8 8 6 6 6 6 5 5 4 4 3 3 2 1 1 1 1 1 2 2 4 6 6 6 4 3 3 2
11 10 10 10 9 8 10 8 9 10 12 13 13 15 12 10 10 9 6 6 5 5 5 5 4 4 3 2 2 2 1 1 1 1 1 3 5 6 6 6 5 5 4 2
9 7 8 9 8 8 8 10 10 11 13 16 14 14 14 12 10 9 7 6 6 5 5 5 4 3 3 2 2 2 2 2 2 2 3 4 5 6 6 5 6 5 4 3
10 10 8 7 10 9 10 12 15 16 18 18 13 14 13 10 8 8 7 7 6 5 6 5 5 4 4 3 3 2 2 2 2 3 3 3 5 5 6 5 6 5 5 4
16 16 9 8 9 12 12 12 16 20 19 17 12 16 13 8 8 7 6 6 5 5 5 5 5 4 4 3 3 2 2 2 2 3 3 3 5 5 4 5 4 5 5 4
15 14 10 9 7 9 13 15 10 14 13 16 15 13 10 8 8 8 7 7 6 6 6 5 4 4 4 3 3 2 2 2 2 2 2 5 5 4 5 4 4 5 4 3
11 16 10 8 8 8 11 9 14 14 18 19 15 15 14 10 10 8 8 7 6 6 6 5 5 4 3 3 2 2 2 2 2 2 3 4 4 4 4 3 4 5 4 4
11 12 13 11 12 13 12 13 11 12 13 18 19 16 11 12 10 9 8 7 6 7 6 5 5 4 3 3 3 2 2 2 2 2 4 5 5 4 4 4 4 4 4 4
10 13 16 14 9 9 10 11 11 17 16 14 16 17 9 9 9 8 7 7 6 6 6 5 5 4 4 3 3 3 2 2 2 2 3 5 5 4 4 4 5 4 4 4
10 14 18 15 12 10 12 10 9 10 12 15 18 17 9 9 9 9 8 7 6 6 6 6 5 4 4 4 3 3 2 2 2 2 3 4 5 4 3 5 5 4 3 4
9 14 17 19 16 13 14 12 11 11 15 15 16 15 12 10 10 10 8 7 7 6 6 5 5 5 4 4 3 3 2 2 2 2 4 5 5 4 4 5 6 5 3 4
12 17 15 14 13 12 13 13 12 14 14 17 15 15 12 11 11 10 8 8 7 7 6 6 5 5 4 4 3 3 2 2 2 2 3 4 5 4 4 5 6 5 4 4
12 16 14 15 12 13 16 15 13 14 15 13 13 14 10 10 9 10 10 9 8 8 6 5 5 5 4 4 3 3 3 2 2 2 3 4 4 4 4 5 6 6 6 5
14 15 16 17 13 13 18 17 16 15 15 14 17 14 11 12 11 11 11 10 9 8 8 6 5 4 4 4 3 3 3 2 2 2 3 4 4 4 5 5 6 6 7 7
13 14 14 16 15 23 17 13 14 15 15 14 14 14 12 11 11 12 11 12 11 9 8 6 5 5 3 3 3 2 2 2 3 3 4 4 4 5 5 6 6 7 7 8
10 13 16 18 19 17 17 15 16 16 16 14 14 13 13 11 11 12 11 12 11 10 9 8 5 5 4 3 2 2 3 2 3 3 4 3 4 5 5 6 6 7 7 7
12 13 15 17 22 24 18 14 12 11 18 13 13 13 14 13 16 15 11 11 11 11 10 9 7 4 4 3 2 3 3 3 3 2 3 3 3 3 5 6 6 6 6 7
16 17 19 19 20 19 15 13 11 19 18 13 13 13 13 15 14 12 11 12 11 11 10 9 5 4 3 2 2 3 3 3 3 2 2 3 3 4 5 6 6 6 7 6
17 19 19 18 21 23 13 13 17 15 12 12 12 12 13 12 12 12 12 12 12 12 11 10 10 8 7 5 3 3 3 2 2 2 2 3 3 4 4 5 6 6 6 7
17 15 17 17 17 12 12 13 12 12 12 11 11 11 11 12 13 12 13 13 13 13 12 11 11 10 10 9 8 8 6 2 2 3 3 3 3 3 4 5 5 6 7 7
13 11 15 14 14 13 12 10 10 10 11 10 9 10 11 12 12 13 12 13 12 13 13 12 12 12 12 11 10 9 8 5 2 3 3 3 3 4 4 4 5 5 6 7
12 12 13 14 12 11 10 10 9 9 9 10 10 10 11 11 11 12 13 13 13 12 12 12 13 13 12 12 11 11 10 6 3 4 3 3 3 4 4 5 5 5 5 6
11 13 15 14 10 11 11 9 9 9 10 10 10 11 10 11 11 11 12 12 12 12 12 12 13 12 12 12 12 12 10 8 7 4 4 5 5 4 4 5 7 12 8 11